When you browse on this site, cookies collect data to enhance your experience and personalize the content and advertising you see.
Visit our Privacy Policy to learn more. By continuing to use the site, you agree to this use of cookies and data.
  • In Deutschland
  • Länderverzeichnis
  • Für 7 Tage
  • Wassertemperatur
  • Satellitenkarten
  • Wetterkarte
  • Widgets
  • user-avatar
    Anmelden

    Stündliche Wetter Albersweiler

    Heute, 18 Januar, Freitag

    Zeit Temperatur Niederschläge Wind Luftdruck Luftfeuchtigkeit
    00:00 -1°C° 0 mm 4 m/S 744 mmHg 83%
    01:00 -1°C° 0 mm 2 m/S 744 mmHg 84%
    02:00 -1°C° 0 mm 3 m/S 745 mmHg 85%
    03:00 -1°C° 0 mm 3 m/S 745 mmHg 86%
    04:00 -1°C° 0 mm 3 m/S 745 mmHg 86%
    05:00 -1°C° 0 mm 3 m/S 746 mmHg 88%
    06:00 -2°C° 0 mm 2 m/S 746 mmHg 89%
    07:00 -2°C° 0 mm 2 m/S 747 mmHg 92%
    08:00 +1°C° 0 mm 1 m/S 747 mmHg 90%
    09:00 +1°C° 0 mm 1 m/S 748 mmHg 87%
    10:00 +1°C° 0 mm 1 m/S 748 mmHg 85%
    11:00 +2°C° 0 mm 1 m/S 748 mmHg 79%
    12:00 +2°C° 0 mm 0 m/S 748 mmHg 74%
    13:00 +3°C° 0 mm 0 m/S 748 mmHg 68%
    14:00 +3°C° 0 mm 0 m/S 748 mmHg 68%
    15:00 +3°C° 0 mm 0 m/S 748 mmHg 69%
    16:00 +3°C° 0 mm 1 m/S 748 mmHg 69%
    17:00 +3°C° 0 mm 1 m/S 748 mmHg 72%
    18:00 +2°C° 0 mm 1 m/S 747 mmHg 75%
    19:00 +1°C° 0 mm 1 m/S 747 mmHg 78%
    20:00 +1°C° 0 mm 1 m/S 747 mmHg 80%
    21:00 +1°C° 0 mm 1 m/S 747 mmHg 81%
    22:00 0°C° 0 mm 1 m/S 747 mmHg 82%
    23:00 0°C° 0 mm 1 m/S 747 mmHg 83%

    Morgen, 19 Januar, Samstag

    Zeit Temperatur Niederschläge Wind Luftdruck Luftfeuchtigkeit
    00:00 0°C° 0 mm 1 m/S 747 mmHg 83%
    01:00 0°C° 0 mm 1 m/S 747 mmHg 83%
    02:00 0°C° 0 mm 1 m/S 747 mmHg 83%
    03:00 0°C° 0 mm 1 m/S 747 mmHg 82%
    04:00 0°C° 0 mm 1 m/S 747 mmHg 81%
    05:00 -2°C° 0 mm 2 m/S 746 mmHg 81%
    06:00 -3°C° 0 mm 2 m/S 746 mmHg 81%
    07:00 -3°C° 0 mm 2 m/S 746 mmHg 80%
    08:00 -2°C° 0 mm 2 m/S 746 mmHg 78%
    09:00 -2°C° 0 mm 2 m/S 746 mmHg 76%
    10:00 -2°C° 0 mm 3 m/S 746 mmHg 74%
    11:00 -1°C° 0 mm 2 m/S 746 mmHg 70%
    12:00 +1°C° 0 mm 2 m/S 745 mmHg 66%
    13:00 +1°C° 0 mm 2 m/S 745 mmHg 62%
    14:00 +1°C° 0 mm 2 m/S 744 mmHg 63%
    15:00 +1°C° 0 mm 2 m/S 744 mmHg 63%
    16:00 +2°C° 0 mm 1 m/S 743 mmHg 63%
    17:00 +1°C° 0 mm 1 m/S 743 mmHg 67%
    18:00 0°C° 0 mm 1 m/S 743 mmHg 71%
    19:00 -1°C° 0 mm 1 m/S 743 mmHg 74%
    20:00 -1°C° 0 mm 1 m/S 743 mmHg 75%
    21:00 -1°C° 0 mm 1 m/S 743 mmHg 76%
    22:00 -2°C° 0 mm 0 m/S 743 mmHg 77%
    23:00 -2°C° 0 mm 0 m/S 743 mmHg 77%

    übermorgen, 20 Januar, Sonntag

    Zeit Temperatur Niederschläge Wind Luftdruck Luftfeuchtigkeit
    00:00 -2°C° 0 mm 0 m/S 743 mmHg 77%
    01:00 -1°C° 0 mm 1 m/S 743 mmHg 77%
    02:00 -1°C° 0 mm 1 m/S 743 mmHg 77%
    03:00 -1°C° 0 mm 1 m/S 743 mmHg 78%
    04:00 -1°C° 0 mm 1 m/S 743 mmHg 78%
    05:00 -2°C° 0 mm 1 m/S 743 mmHg 78%
    06:00 -2°C° 0 mm 1 m/S 743 mmHg 78%
    07:00 -2°C° 0 mm 1 m/S 743 mmHg 78%
    08:00 -1°C° 0 mm 1 m/S 744 mmHg 76%
    09:00 -1°C° 0 mm 1 m/S 744 mmHg 73%
    10:00 0°C° 0 mm 1 m/S 745 mmHg 70%
    11:00 +1°C° 0 mm 1 m/S 745 mmHg 65%
    12:00 +2°C° 0 mm 1 m/S 745 mmHg 61%
    13:00 +1°C° 0 mm 2 m/S 745 mmHg 56%
    14:00 +1°C° 0 mm 2 m/S 745 mmHg 58%
    15:00 +1°C° 0 mm 2 m/S 745 mmHg 59%
    16:00 +1°C° 0 mm 2 m/S 745 mmHg 61%
    17:00 -1°C° 0 mm 2 m/S 746 mmHg 65%
    18:00 -2°C° 0 mm 2 m/S 746 mmHg 69%
    19:00 -3°C° 0 mm 2 m/S 747 mmHg 73%
    20:00 -3°C° 0 mm 2 m/S 747 mmHg 73%
    21:00 -3°C° 0 mm 2 m/S 748 mmHg 74%
    22:00 -3°C° 0 mm 2 m/S 748 mmHg 74%
    23:00 -3°C° 0 mm 2 m/S 749 mmHg 74%

    21 Januar, Montag

    Zeit Temperatur Niederschläge Wind Luftdruck Luftfeuchtigkeit
    00:00 -4°C° 0 mm 2 m/S 749 mmHg 73%
    01:00 -4°C° 0 mm 2 m/S 749 mmHg 72%
    02:00 -4°C° 0 mm 2 m/S 749 mmHg 73%
    03:00 -4°C° 0 mm 2 m/S 750 mmHg 73%
    04:00 -4°C° 0 mm 2 m/S 750 mmHg 74%
    05:00 -4°C° 0 mm 2 m/S 750 mmHg 75%
    06:00 -4°C° 0 mm 2 m/S 750 mmHg 77%
    07:00 -4°C° 0 mm 2 m/S 751 mmHg 78%
    08:00 -4°C° 0 mm 2 m/S 751 mmHg 76%
    09:00 -3°C° 0 mm 2 m/S 751 mmHg 73%
    10:00 -3°C° 0 mm 2 m/S 752 mmHg 71%
    11:00 -2°C° 0 mm 2 m/S 752 mmHg 66%
    12:00 -1°C° 0 mm 2 m/S 752 mmHg 62%
    13:00 +1°C° 0 mm 2 m/S 752 mmHg 57%
    14:00 +2°C° 0 mm 1 m/S 751 mmHg 59%
    15:00 +2°C° 0 mm 1 m/S 751 mmHg 60%
    16:00 +1°C° 0 mm 1 m/S 751 mmHg 61%
    17:00 +1°C° 0 mm 1 m/S 751 mmHg 65%
    18:00 -1°C° 0 mm 0 m/S 751 mmHg 68%
    19:00 -2°C° 0 mm 0 m/S 751 mmHg 72%
    20:00 -2°C° 0 mm 0 m/S 751 mmHg 72%
    21:00 -2°C° 0 mm 0 m/S 751 mmHg 72%
    22:00 -2°C° 0 mm 0 m/S 751 mmHg 72%
    23:00 -1°C° 0 mm 1 m/S 750 mmHg 73%

    22 Januar, Dienstag

    Zeit Temperatur Niederschläge Wind Luftdruck Luftfeuchtigkeit
    00:00 -2°C° 0 mm 1 m/S 749 mmHg 73%
    01:00 -2°C° 0 mm 1 m/S 749 mmHg 73%
    02:00 -4°C° 0 mm 2 m/S 748 mmHg 73%
    03:00 -4°C° 0 mm 2 m/S 747 mmHg 73%
    04:00 -4°C° 0 mm 2 m/S 747 mmHg 72%
    05:00 -5°C° 0 mm 3 m/S 746 mmHg 70%
    06:00 -4°C° 0 mm 3 m/S 745 mmHg 69%
    07:00 -4°C° 0 mm 4 m/S 744 mmHg 67%
    08:00 -3°C° 0 mm 4 m/S 743 mmHg 63%
    09:00 -4°C° 0 mm 5 m/S 742 mmHg 60%
    10:00 -2°C° 0 mm 5 m/S 741 mmHg 57%
    11:00 -3°C° 0.3 mm 6 m/S 740 mmHg 63%
    12:00 -3°C° 0.3 mm 6 m/S 739 mmHg 70%
    13:00 -2°C° 0.3 mm 6 m/S 737 mmHg 76%
    14:00 -2°C° 0.7 mm 6 m/S 737 mmHg 79%
    15:00 -1°C° 0.7 mm 5 m/S 736 mmHg 83%
    16:00 -1°C° 0.7 mm 5 m/S 735 mmHg 86%
    17:00 -1°C° 0.1 mm 4 m/S 734 mmHg 87%
    18:00 -1°C° 0.1 mm 4 m/S 734 mmHg 88%
    19:00 0°C° 0.1 mm 3 m/S 734 mmHg 89%
    20:00 -1°C° 0 mm 3 m/S 733 mmHg 91%
    21:00 -2°C° 0 mm 2 m/S 732 mmHg 93%
    22:00 -2°C° 0 mm 2 m/S 732 mmHg 95%
    23:00 -2°C° 0.8 mm 2 m/S 732 mmHg 94%

    23 Januar, Mittwoch

    Zeit Temperatur Niederschläge Wind Luftdruck Luftfeuchtigkeit
    00:00 -2°C° 0.8 mm 3 m/S 731 mmHg 93%
    01:00 -2°C° 0.8 mm 4 m/S 731 mmHg 92%
    02:00 -2°C° 0.3 mm 4 m/S 730 mmHg 90%
    03:00 -4°C° 0.3 mm 5 m/S 730 mmHg 87%
    04:00 -4°C° 0.3 mm 5 m/S 729 mmHg 85%
    05:00 -5°C° 0 mm 5 m/S 729 mmHg 88%
    06:00 -5°C° 0 mm 4 m/S 728 mmHg 90%
    07:00 -5°C° 0 mm 3 m/S 728 mmHg 93%
    08:00 -5°C° 0 mm 3 m/S 728 mmHg 91%
    09:00 -4°C° 0 mm 3 m/S 728 mmHg 89%
    10:00 -4°C° 0 mm 3 m/S 728 mmHg 88%
    11:00 -4°C° 0.2 mm 3 m/S 728 mmHg 87%
    12:00 -2°C° 0.2 mm 3 m/S 727 mmHg 85%
    13:00 -2°C° 0.2 mm 3 m/S 727 mmHg 84%
    14:00 -2°C° 0.1 mm 3 m/S 727 mmHg 84%
    15:00 -2°C° 0.1 mm 3 m/S 727 mmHg 84%
    16:00 -2°C° 0.1 mm 3 m/S 727 mmHg 84%
    17:00 -2°C° 0.1 mm 2 m/S 727 mmHg 87%
    18:00 -3°C° 0.1 mm 2 m/S 727 mmHg 89%
    19:00 -4°C° 0.1 mm 2 m/S 727 mmHg 92%
    20:00 -2°C° 0.1 mm 1 m/S 727 mmHg 92%
    21:00 -2°C° 0.1 mm 1 m/S 727 mmHg 92%
    22:00 -2°C° 0.1 mm 1 m/S 728 mmHg 93%
    23:00 -2°C° 0 mm 1 m/S 728 mmHg 93%
    Mehr zeigen